RH
15 15 14 11 10 9 7 6 5 6 6 5 6 5 6 6 5 6 6 5 6 6 7 7 7 7 7 7 7 6 7 7 7 8 8 8 9 9 10 11 13 13 12 12 12 13 15 18 23 29 29 26 21 16 14 15 19 23 27 29 27 25 24
16 15 13 12 12 11 8 6 6 6 6 6 6 5 5 6 5 6 6 5 6 6 6 7 7 7 8 7 7 7 7 7 7 8 8 9 9 9 10 11 13 13 12 11 11 12 15 19 24 29 31 28 21 15 14 15 20 26 28 29 28 25 24
15 15 16 17 16 12 8 7 6 6 6 6 6 6 6 6 6 6 6 5 6 6 6 7 7 7 8 8 7 7 7 7 8 8 8 9 9 10 11 12 13 13 12 12 11 13 15 19 25 30 32 29 20 14 14 17 23 27 30 31 27 24 24
16 18 21 20 15 11 8 8 7 7 7 6 6 6 6 6 6 6 6 6 6 6 6 7 7 7 8 8 7 7 7 7 8 8 8 9 9 10 11 12 12 12 12 12 11 13 16 20 27 33 32 26 18 14 15 20 25 30 31 30 26 24 25
20 23 23 18 13 11 10 8 8 8 7 7 6 6 6 6 6 6 6 6 6 6 6 7 7 7 8 8 7 7 7 7 8 8 9 9 9 11 12 12 12 12 12 12 12 14 19 24 30 33 29 21 14 14 18 22 28 32 32 28 25 25 27
24 24 20 16 14 13 11 9 9 8 8 7 7 6 6 6 6 6 6 6 6 6 6 7 7 7 7 7 7 7 7 7 8 8 8 9 10 11 12 12 12 12 12 12 13 16 22 29 33 31 23 16 14 16 20 26 31 33 32 29 26 25 28
24 22 19 18 16 14 12 10 10 9 8 8 7 6 7 6 6 7 6 6 6 6 7 7 7 7 7 7 7 7 7 7 8 8 9 10 11 11 12 12 12 13 13 13 15 20 27 32 31 26 17 13 16 19 23 28 33 34 33 32 30 26 29
25 24 23 22 20 15 12 12 11 10 9 8 7 7 7 7 7 7 6 6 6 7 7 7 7 7 7 7 7 7 7 8 8 9 10 10 11 12 13 13 13 13 14 15 20 26 31 31 26 19 14 14 17 21 25 30 36 38 37 36 33 29 33
31 29 27 26 23 17 14 15 13 11 10 8 7 7 7 7 7 7 7 7 6 7 8 8 8 8 7 7 7 7 8 8 9 10 11 11 12 13 13 13 13 14 16 20 25 30 30 27 20 15 14 17 20 23 27 31 37 42 44 44 38 31 35
35 32 31 29 24 20 18 17 13 11 10 8 7 7 7 7 8 8 7 7 7 7 8 8 8 7 7 7 7 8 8 9 10 11 12 12 12 12 13 13 13 15 20 25 28 29 28 23 18 15 17 20 23 26 30 34 39 44 48 50 45 35 33
36 37 38 33 25 21 18 15 11 10 10 9 8 7 8 8 8 8 8 7 8 8 8 8 8 7 7 7 7 8 8 9 11 11 11 11 11 11 12 12 14 19 24 28 29 28 28 24 19 17 21 24 26 30 33 37 43 49 53 57 56 45 36
42 46 42 32 23 19 15 12 11 11 10 9 8 8 8 8 8 8 8 8 8 8 8 9 8 8 8 7 7 7 8 9 10 11 11 11 10 10 11 13 18 23 26 29 30 29 29 26 22 22 26 27 30 35 38 41 47 54 62 69 68 55 40
47 45 37 28 22 18 15 13 12 11 10 10 9 9 9 9 9 8 8 8 8 9 9 9 8 8 8 7 7 7 8 10 10 11 11 11 11 11 13 16 21 25 28 30 31 31 30 28 27 28 29 30 35 41 43 47 56 66 75 79 75 60 44
45 40 33 28 23 19 15 12 11 11 11 10 9 9 10 10 10 9 9 9 9 9 9 9 8 8 8 8 8 8 9 10 11 12 12 12 12 13 15 20 23 26 29 30 31 31 29 30 32 33 35 37 40 46 54 65 77 85 87 85 78 64 49
44 40 35 30 24 19 15 13 11 11 11 11 10 9 10 10 10 10 10 10 9 9 10 9 9 8 8 8 8 9 10 12 13 14 14 12 13 15 19 24 26 27 28 27 28 30 31 34 38 38 39 40 42 51 69 86 96 96 89 86 81 68 52
45 42 37 31 25 21 18 14 11 12 12 11 10 10 10 10 10 10 10 10 10 10 10 9 9 9 9 9 9 9 11 13 13 14 14 14 16 20 24 26 26 25 24 25 28 31 34 37 39 42 48 54 60 72 87 96 98 95 91 92 90 75 57
46 43 38 34 30 25 21 15 12 12 12 12 11 11 11 10 10 11 11 10 11 10 10 10 9 10 10 10 10 11 11 13 13 13 15 17 20 24 26 25 23 22 23 27 31 35 38 42 51 63 75 78 79 86 95 99 98 95 95 98 94 81 67
47 44 42 39 34 28 22 16 13 13 13 12 12 11 11 11 11 11 10 10 10 10 10 10 9 10 11 10 10 12 12 12 13 15 18 22 25 27 25 21 21 23 26 28 32 35 39 42 48 58 66 66 65 72 85 95 99 98 97 96 92 84 78
48 47 45 41 35 29 22 17 14 14 14 13 13 12 11 11 11 10 10 10 10 10 10 10 10 10 11 11 11 12 12 13 15 18 23 26 28 26 22 22 26 29 29 31 35 38 39 39 40 42 46 49 54 61 72 81 89 94 95 94 91 87 86
49 49 47 42 35 28 21 17 15 15 15 13 12 12 11 11 11 10 10 10 10 11 10 10 10 10 10 11 12 13 13 15 19 24 27 28 27 24 24 29 33 33 33 36 41 42 43 42 41 40 42 47 51 57 64 71 78 84 87 90 90 88 88
52 52 48 41 34 26 20 17 16 16 15 13 12 12 11 12 11 11 11 11 11 11 10 9 9 10 11 12 12 14 16 19 23 27 28 27 26 27 32 39 40 37 38 43 46 48 49 48 46 44 44 49 54 59 66 73 78 82 85 87 86 83 81
54 53 48 40 31 23 18 17 17 16 15 13 12 12 11 11 11 11 12 13 12 12 11 10 10 11 11 12 13 15 19 23 26 27 26 26 29 33 39 44 46 47 48 50 51 52 54 54 51 48 49 54 60 64 69 76 80 84 85 84 79 76 74
56 52 45 36 27 20 17 18 18 16 15 13 12 12 12 12 12 12 13 14 14 13 12 11 12 11 12 13 15 18 22 25 26 24 24 27 31 35 39 43 47 52 54 56 57 57 58 57 53 51 54 60 66 71 74 78 80 82 82 81 77 75 75
56 49 41 31 23 18 17 18 17 16 15 13 13 12 12 12 13 14 15 15 15 14 13 13 12 12 13 16 19 22 25 25 24 23 25 29 33 35 39 42 46 52 58 62 65 64 62 59 56 56 60 67 72 75 76 76 77 80 82 81 79 78 79
53 44 35 26 20 18 18 18 17 15 14 13 13 13 12 13 15 15 16 16 15 14 14 14 13 14 16 19 22 25 25 23 22 25 28 32 35 37 41 46 51 59 68 73 73 70 66 63 61 63 68 73 77 78 77 77 78 80 82 82 80 80 81
48 38 28 22 19 19 19 18 16 14 13 12 13 13 14 15 16 16 16 16 15 15 15 15 16 17 19 22 24 25 24 22 24 28 31 33 36 39 44 51 58 67 76 81 81 78 75 71 71 73 76 78 81 80 78 79 82 82 83 83 82 81 80
40 31 24 21 21 21 20 18 15 13 12 12 13 14 15 16 16 16 17 16 15 15 16 17 19 21 23 25 25 24 24 25 28 31 32 33 37 42 49 56 63 71 80 86 88 87 85 83 82 83 83 83 85 84 82 83 86 87 86 86 86 86 82
34 28 24 23 23 22 20 18 15 13 13 14 15 15 15 16 17 16 16 16 15 16 18 20 22 23 24 25 24 23 25 27 30 33 33 35 38 45 52 59 65 72 79 86 91 93 93 92 91 90 90 90 90 88 87 89 92 93 92 92 92 91 87
31 27 26 26 25 24 21 18 15 14 14 14 15 16 16 16 16 16 16 15 16 18 19 21 22 23 24 23 21 22 25 28 30 32 33 35 40 46 53 59 64 70 77 84 90 95 97 97 97 96 96 97 96 95 96 98 99 98 98 99 100 98 95
31 30 29 28 27 25 23 20 17 15 15 15 16 17 17 17 17 17 16 16 18 20 22 22 22 23 23 22 22 25 28 30 32 33 32 34 39 44 50 56 62 70 78 84 90 95 98 100 100 100 100 101 100 100 100 101 102 102 102 103 103 102 101
33 34 33 31 29 26 24 22 20 18 17 16 17 18 19 19 18 18 18 19 22 25 24 23 24 23 23 24 26 29 32 33 35 35 34 35 38 42 47 54 61 70 80 87 92 96 99 102 102 101 101 101 101 100 101 101 101 102 102 102 102 102 101
36 36 34 32 31 29 26 24 22 21 19 18 18 19 19 19 18 18 19 22 26 26 24 24 24 23 24 27 30 32 35 37 38 37 37 37 38 41 45 52 60 69 79 88 94 98 100 102 102 101 100 101 101 100 101 101 100 101 101 101 100 101 101
40 38 36 34 32 31 29 27 25 23 21 21 20 19 19 19 19 19 21 24 26 25 25 25 25 25 27 30 33 36 39 41 40 40 39 39 40 41 45 50 56 62 69 78 87 95 100 102 102 102 101 101 101 101 101 101 101 101 101 101 100 100 100
42 40 38 36 34 32 32 30 28 27 26 24 23 21 20 19 20 20 22 25 26 26 26 26 27 28 30 33 37 40 43 43 42 42 42 42 42 43 45 48 50 52 55 62 72 81 88 93 98 101 103 102 101 101 101 101 101 101 101 101 100 100 100
42 41 40 38 36 34 33 32 32 31 29 27 24 22 21 22 21 22 24 26 27 27 28 28 29 31 34 37 40 43 45 45 45 45 45 45 45 46 45 46 47 48 50 56 62 68 74 81 88 95 101 104 103 102 101 101 101 101 101 100 100 100 101
41 39 39 37 36 35 34 34 34 32 30 27 24 23 24 25 25 26 27 27 27 27 29 31 33 34 37 40 43 45 47 48 48 49 49 50 50 50 49 47 47 49 51 56 60 63 68 74 79 84 93 100 102 102 102 102 101 100 100 100 100 100 100
Wind_Speed
27 26 25 23 22 22 22 22 22 22 23 23 24 24 23 23 24 24 25 25 24 24 24 24 24 24 24 24 24 24 23 23 23 24 24 24 26 26 27 30 32 38 43 41 36 37 37 34 33 33 32 34 36 36 35 34 33 32 29 25 22 19 19
28 26 25 24 23 22 23 23 23 23 23 24 24 24 24 24 25 25 26 25 25 25 25 26 25 25 25 25 25 24 24 24 24 24 25 25 27 27 27 29 32 36 42 44 40 38 39 38 36 35 34 35 38 38 37 35 34 30 27 25 22 20 19
28 27 25 24 24 24 24 23 23 23 24 25 25 25 25 25 26 26 26 26 26 26 26 26 26 26 26 26 26 25 24 24 24 25 25 25 27 28 28 28 32 35 40 44 43 40 40 40 39 37 37 37 39 39 38 37 34 30 26 23 21 19 19
28 27 26 25 24 24 24 23 24 24 25 25 25 25 25 26 26 26 26 26 27 27 27 27 27 27 27 27 26 25 25 25 25 26 26 26 27 28 29 29 31 35 38 42 44 42 42 42 41 40 39 38 39 40 38 37 35 30 26 22 18 18 20
28 27 26 25 25 25 25 24 25 25 26 26 26 26 26 26 26 26 26 27 27 27 27 28 28 28 29 28 27 26 25 26 26 27 27 27 28 29 30 30 32 34 36 40 43 44 43 43 43 42 40 38 39 40 38 35 34 31 27 23 17 16 21
28 27 26 25 25 25 25 25 26 26 27 26 26 26 26 26 26 27 27 27 28 28 28 29 29 29 30 29 28 26 26 27 27 28 27 27 28 29 31 32 33 34 36 39 42 44 44 44 44 44 42 39 38 40 39 36 34 31 27 25 19 15 19
28 27 26 26 26 26 26 26 27 27 27 27 26 26 26 27 27 27 27 28 28 28 29 29 29 30 30 30 28 27 27 28 28 28 28 28 29 30 31 33 34 34 36 38 41 43 44 44 44 44 43 40 37 38 38 36 37 34 28 26 23 18 20
28 27 27 27 27 27 26 27 27 27 27 27 27 27 27 27 28 28 28 28 29 29 30 30 29 30 30 30 29 28 28 28 29 29 28 28 29 31 33 34 34 34 36 38 41 43 43 44 45 43 42 40 38 37 36 35 38 38 33 29 25 20 22
29 28 28 28 27 27 27 27 28 27 27 27 27 28 28 28 28 28 28 29 30 30 30 30 30 30 30 30 29 29 29 29 29 29 30 29 31 32 33 34 34 35 37 39 41 43 43 44 45 43 41 41 39 38 38 36 36 38 35 33 29 21 21
29 29 28 28 27 27 28 28 27 27 27 27 28 28 29 29 28 29 29 30 31 31 31 31 30 30 30 30 30 30 30 29 29 30 31 31 32 33 33 34 35 36 37 40 42 44 44 45 46 43 41 42 40 38 38 36 36 37 35 34 35 26 20
29 29 28 28 28 28 28 28 27 27 27 28 29 29 29 29 29 29 30 31 32 32 31 31 30 30 29 29 29 29 29 29 29 30 31 32 32 33 34 35 35 37 38 41 44 45 45 46 47 45 41 41 41 39 37 36 35 36 35 34 36 32 23
30 29 28 28 28 28 28 27 27 27 28 28 28 29 30 30 30 30 31 32 32 32 31 30 30 29 29 29 29 30 29 29 29 30 31 32 33 34 36 36 36 38 40 42 45 47 47 47 47 47 42 39 39 38 37 37 35 34 34 33 35 36 28
30 29 28 28 28 28 28 27 27 27 28 28 28 28 30 31 32 32 32 33 33 32 31 29 29 29 29 28 29 30 30 30 30 31 31 33 34 36 37 37 38 39 41 42 45 48 50 48 46 46 43 38 37 38 37 37 35 32 33 34 36 37 31
30 29 28 28 28 28 28 27 27 28 28 28 28 28 30 32 33 34 34 33 33 32 31 29 29 30 29 28 29 30 31 31 31 31 32 34 36 37 38 38 39 40 41 42 45 48 51 49 44 44 42 36 34 36 35 34 33 33 34 37 38 37 32
30 29 28 29 29 29 28 27 27 28 28 28 28 29 30 32 34 35 35 34 33 32 31 30 30 30 30 29 29 30 32 33 33 34 35 36 38 38 39 40 40 40 41 43 45 47 48 46 42 39 38 35 33 34 32 31 33 34 36 38 40 39 34
30 29 29 29 29 29 28 27 27 28 28 28 28 29 31 33 34 35 36 35 34 32 30 29 30 31 31 30 30 31 32 33 34 36 37 38 40 40 41 42 40 40 42 44 45 45 43 41 38 35 34 32 30 30 30 31 34 35 37 39 42 43 39
30 29 29 29 30 29 28 27 27 28 29 28 28 29 31 33 34 36 36 36 35 33 30 29 29 30 32 32 32 32 33 33 34 37 38 40 41 42 44 44 41 40 42 42 42 41 39 36 34 33 32 31 30 29 30 33 37 38 38 41 45 47 45
30 30 30 30 29 29 28 27 27 28 29 28 28 30 32 34 35 36 37 37 35 32 30 29 29 30 32 33 33 33 33 34 35 37 39 40 42 44 46 46 42 41 41 40 38 38 36 34 33 33 33 34 34 34 34 38 42 42 42 44 47 48 49
31 30 30 30 30 29 29 28 27 28 28 28 28 30 33 34 36 37 37 36 35 32 30 29 29 30 32 33 34 34 34 34 36 38 39 40 42 46 48 46 42 40 39 38 38 37 36 34 34 34 35 35 35 35 35 38 42 44 45 47 48 48 49
31 31 30 30 30 29 29 28 27 27 28 29 28 30 33 35 36 37 36 35 34 33 30 29 29 30 32 33 34 34 34 35 36 38 39 40 43 46 47 44 41 39 37 37 38 37 36 35 35 35 36 36 36 35 34 35 37 39 41 44 47 46 46
31 31 31 30 30 30 29 28 28 27 28 29 29 30 33 35 36 35 35 35 35 33 31 29 29 30 32 34 35 35 35 36 37 38 40 41 43 45 43 41 40 38 36 36 38 38 37 37 36 36 37 37 36 34 32 32 32 33 36 39 43 43 43
31 32 31 30 30 30 29 28 28 27 27 29 30 31 32 34 34 34 34 36 36 33 31 30 30 31 32 34 35 36 36 37 38 39 41 41 42 42 40 38 39 38 37 37 38 39 39 39 38 38 37 35 34 32 31 31 31 32 35 38 39 40 41
32 32 32 31 30 29 28 28 28 28 27 28 30 31 31 32 33 33 34 36 36 34 32 31 32 32 33 34 36 37 37 38 39 40 41 41 40 39 38 37 37 37 37 37 37 38 39 39 38 37 36 34 33 32 31 32 32 33 35 37 38 38 40
31 32 32 32 30 28 28 28 28 28 28 29 29 30 30 30 31 32 33 35 36 35 34 34 33 34 35 35 37 38 38 39 40 40 41 40 38 37 36 36 37 36 35 36 37 37 38 37 35 35 35 33 32 32 32 32 34 35 35 36 37 38 39
31 31 32 32 31 29 28 28 28 28 28 29 28 28 29 30 31 32 33 34 36 35 35 35 35 35 36 36 38 39 39 40 40 39 39 37 35 35 35 35 35 34 34 36 37 37 36 35 33 33 33 33 32 33 33 33 34 36 36 36 38 39 39
31 31 31 31 31 30 28 27 28 29 28 28 27 27 28 29 30 31 32 34 35 35 36 36 36 37 37 38 39 40 40 40 39 38 37 35 33 33 33 33 32 32 34 36 37 37 36 35 33 33 33 33 33 33 33 33 35 37 37 37 38 40 41
30 30 31 32 32 31 29 28 27 28 27 27 27 27 28 29 30 30 31 33 34 35 36 37 37 37 38 39 40 40 40 40 38 36 35 33 31 32 31 31 31 32 34 35 36 36 36 35 34 34 33 33 34 34 33 33 35 37 38 37 38 41 43
30 30 30 31 31 31 30 29 26 25 26 27 27 28 29 29 30 30 31 32 34 35 37 38 38 38 39 39 40 40 39 37 36 34 32 31 30 30 29 29 30 32 34 35 35 35 36 34 34 34 33 33 34 34 33 32 34 36 37 37 38 41 44
31 30 30 31 31 30 31 29 25 22 25 27 28 29 30 30 31 31 31 32 33 35 37 38 38 39 39 40 40 40 38 36 33 32 31 30 29 29 28 29 30 32 34 34 34 35 35 34 33 33 32 32 34 34 32 31 32 35 36 37 38 41 43
30 29 29 31 31 30 30 29 25 23 25 27 28 29 31 31 32 32 33 33 34 36 38 38 39 40 40 40 40 40 38 35 33 32 30 29 28 29 28 29 30 32 32 33 33 34 34 33 33 33 32 32 33 33 32 31 32 33 35 36 38 41 42
29 29 29 30 31 30 29 29 27 25 25 26 28 30 31 32 33 33 33 33 34 37 39 39 39 41 40 39 40 40 38 35 34 32 30 29 28 28 28 29 30 31 31 32 33 33 33 32 32 32 32 31 32 32 32 31 31 32 34 35 37 39 40
29 28 28 29 30 30 30 29 28 27 26 26 27 29 31 33 33 33 33 33 35 38 39 39 40 41 40 39 39 39 37 35 34 33 31 30 29 28 28 29 30 30 31 32 33 32 32 32 32 32 32 32 32 32 32 32 32 32 32 34 35 36 38
27 28 28 28 29 30 30 29 28 28 28 27 27 29 30 32 34 33 33 34 36 39 40 39 40 40 39 39 39 38 36 36 35 33 31 30 30 29 28 29 30 30 31 32 32 31 31 31 31 31 32 32 32 32 32 32 32 32 31 32 34 34 35
25 26 27 28 28 28 29 29 28 28 28 28 28 29 30 32 34 34 33 34 36 39 39 39 40 40 39 38 38 37 36 36 34 33 31 31 30 30 29 30 30 30 31 31 30 31 31 30 30 30 31 31 31 31 32 32 32 31 31 31 32 33 33
24 24 26 27 27 27 28 28 28 27 27 27 28 29 31 33 35 34 33 34 36 37 39 39 40 40 38 38 38 37 36 35 34 33 32 32 31 31 30 30 30 30 30 30 30 30 30 30 30 30 29 30 30 30 31 32 31 31 31 31 31 32 32
23 24 26 26 25 25 26 26 27 27 26 26 27 29 30 33 35 34 34 34 35 36 37 38 38 38 37 36 37 36 36 35 34 33 32 32 32 31 31 31 30 30 30 30 30 30 29 29 29 29 28 29 30 30 30 31 30 30 30 30 29 30 30
Wind_Direction
244 247 250 252 255 257 259 262 263 264 266 267 268 270 272 275 276 277 278 279 281 284 286 288 291 294 294 291 288 286 286 286 286 287 289 290 290 291 293 294 294 295 298 303 306 308 310 311 312 313 315 315 314 316 317 314 312 310 308 309 312 315 313
243 246 248 251 255 257 259 260 262 263 265 266 268 269 271 273 274 275 277 278 281 283 284 286 289 293 293 291 288 286 285 285 285 286 287 287 288 289 290 291 292 293 296 301 305 306 307 309 312 313 315 316 314 315 315 312 310 308 306 308 311 313 311
243 245 247 251 254 257 258 260 262 263 265 266 267 269 270 271 272 274 276 278 280 281 283 285 288 292 292 290 287 286 285 284 284 284 285 285 285 286 287 288 289 291 294 298 302 304 305 308 310 311 314 315 314 314 313 311 308 306 304 305 310 311 310
241 244 248 251 254 257 259 261 263 265 266 266 267 268 269 270 271 273 275 277 279 280 282 284 288 290 291 289 287 285 284 282 282 282 282 283 283 285 286 286 287 289 292 296 299 302 304 306 308 310 312 314 313 312 311 309 306 304 301 302 309 311 309
241 244 248 251 254 257 260 262 264 266 266 266 266 267 268 269 272 273 275 277 278 281 282 284 286 289 289 288 286 284 282 281 281 281 281 282 283 283 284 285 286 288 291 294 297 301 303 304 305 308 310 312 312 310 309 307 304 302 301 303 309 312 310
242 245 248 251 254 257 260 263 265 267 267 266 266 267 268 270 272 273 275 277 278 280 281 283 285 287 288 287 285 283 281 280 280 280 281 282 282 283 284 285 287 289 291 292 295 298 300 302 304 306 309 312 313 310 309 307 301 299 303 307 310 312 310
243 246 248 251 254 257 260 264 266 267 267 267 267 268 269 270 272 273 275 276 278 279 280 281 284 286 286 285 284 282 280 280 280 280 281 282 283 284 285 286 288 289 290 292 293 295 298 300 303 305 307 311 312 310 310 309 304 302 304 307 310 314 312
243 246 248 251 255 258 261 264 266 268 268 268 269 269 269 270 271 273 275 276 278 278 279 281 283 285 284 283 282 281 279 280 281 282 283 284 285 285 285 286 288 289 290 291 292 294 297 299 301 303 307 310 312 312 310 309 307 305 306 306 307 313 313
243 245 248 252 255 259 262 264 267 269 269 269 269 268 269 269 271 273 275 276 277 277 278 281 283 283 283 282 281 280 280 281 282 284 285 285 284 284 284 285 286 288 290 291 292 294 297 299 300 303 308 311 312 312 308 306 304 302 303 304 303 307 310
242 245 249 253 256 259 263 266 268 269 269 268 268 268 268 270 272 273 275 275 276 276 278 280 282 282 282 281 279 279 280 282 282 283 283 282 281 281 282 285 287 289 292 293 294 296 298 300 301 305 309 310 309 308 305 303 301 298 299 301 300 303 309
243 247 250 254 257 260 264 267 269 269 269 268 268 269 269 270 272 273 274 275 276 276 278 280 282 282 280 278 278 278 278 279 280 281 280 279 279 280 283 286 290 292 295 296 297 298 299 299 302 305 307 307 306 304 301 299 297 296 297 299 298 300 308
244 248 252 255 258 261 264 267 268 269 269 269 270 271 272 272 271 271 272 273 274 276 278 280 282 281 280 278 277 278 278 280 281 281 280 280 281 284 287 290 294 296 298 298 298 297 296 297 301 303 303 303 302 301 298 295 293 293 294 295 294 296 304
246 249 253 256 259 262 265 267 269 270 270 270 271 272 273 274 273 272 273 274 275 277 279 282 283 281 279 279 279 280 282 283 284 283 284 285 286 288 290 293 295 296 296 296 295 293 293 295 297 298 298 300 298 296 294 292 291 291 292 292 291 293 301
247 250 253 257 260 263 266 269 270 270 270 270 270 270 270 272 273 274 274 275 277 279 282 284 284 282 280 279 280 282 284 286 287 286 286 286 286 288 289 291 292 293 293 292 290 290 291 293 294 294 294 295 293 292 292 293 293 293 291 289 289 292 298
248 251 255 259 262 265 267 270 270 270 270 270 270 269 269 269 271 273 275 276 277 279 282 284 284 282 281 281 281 283 286 288 289 287 286 285 286 287 288 288 290 292 291 289 288 287 288 289 288 287 288 289 288 287 288 291 291 289 287 287 289 291 296
248 252 256 260 263 266 268 270 271 271 270 270 270 269 269 269 271 273 275 276 277 279 281 283 283 282 282 282 282 283 284 286 286 286 286 287 287 288 288 289 291 292 290 289 288 287 286 285 285 285 286 287 287 286 286 286 284 283 284 286 288 291 294
250 253 257 260 264 268 270 271 271 271 271 271 271 270 270 271 272 273 274 275 277 279 281 282 281 281 280 281 281 282 283 284 284 285 285 287 288 290 289 290 292 292 290 288 286 284 282 282 282 282 281 280 277 274 273 273 274 276 280 282 284 288 291
251 254 258 262 265 269 271 271 270 270 271 272 272 271 271 271 272 272 273 275 277 279 281 281 279 278 278 280 281 282 283 283 283 284 286 288 290 290 290 292 295 294 290 286 282 280 279 278 276 274 271 271 270 268 265 265 267 271 274 276 279 284 288
252 255 259 264 266 269 271 271 270 271 272 272 271 271 271 271 271 272 274 276 278 280 280 280 278 277 278 280 281 282 282 283 285 287 289 291 292 291 292 295 296 294 290 286 283 283 283 282 280 276 273 270 269 268 265 264 265 268 271 273 276 279 282
253 257 261 265 268 270 271 272 271 272 273 273 271 270 271 271 272 274 276 278 279 280 280 279 278 278 280 281 283 284 285 286 288 290 292 292 291 292 295 296 294 290 287 286 285 286 286 285 283 279 276 273 270 267 265 263 264 266 268 270 272 274 274
255 259 263 266 269 271 272 273 274 273 273 272 270 269 269 271 273 276 279 280 279 280 281 280 280 281 282 283 284 286 287 289 290 291 291 292 293 294 295 294 292 290 289 288 289 290 289 288 285 282 279 276 274 272 270 269 268 268 268 267 269 272 272
256 261 265 267 270 272 274 275 276 274 272 271 270 269 269 271 275 277 278 279 279 280 281 281 281 282 282 283 285 286 288 289 291 291 291 293 294 293 292 290 289 288 288 288 290 291 290 289 287 284 282 280 278 276 275 275 274 273 271 271 272 273 275
258 263 267 269 271 273 275 276 276 275 273 271 270 270 271 273 276 277 278 279 280 282 283 283 283 284 284 284 286 287 288 290 291 291 292 293 293 290 289 287 285 284 285 286 287 287 286 286 286 284 283 281 280 278 276 275 274 274 273 274 275 275 276
260 264 268 271 272 274 275 276 276 274 272 270 270 270 272 274 276 277 277 278 280 283 284 285 285 285 285 285 286 287 289 290 291 293 294 293 291 288 286 285 285 286 287 287 286 285 284 284 283 282 282 280 279 277 275 274 275 275 276 276 276 275 274
262 266 269 273 274 274 275 275 275 273 270 269 270 271 274 275 275 275 276 278 280 283 284 285 286 286 286 286 287 289 290 291 293 294 293 291 288 286 284 285 287 289 288 286 285 285 284 284 283 282 280 279 278 277 276 277 277 277 277 276 275 275 274
264 268 271 273 275 276 276 274 273 272 270 271 272 274 274 274 274 276 277 278 281 283 284 285 285 286 287 288 289 290 291 293 294 293 291 289 285 283 283 285 286 286 284 283 283 284 284 285 284 282 280 279 279 278 279 280 280 279 278 277 277 276 275
267 269 271 273 275 277 277 274 271 271 273 274 275 275 275 275 275 277 278 279 282 283 284 284 284 285 287 288 289 291 292 293 294 293 290 287 283 282 283 285 285 284 282 281 282 283 283 283 282 280 280 280 280 280 281 281 281 281 280 279 279 277 276
268 269 271 274 276 277 277 274 272 273 275 276 276 276 276 277 277 278 279 280 282 282 282 282 284 285 287 288 289 291 292 292 293 291 288 285 282 282 284 285 285 283 281 281 282 282 281 281 281 281 282 282 281 282 283 282 281 281 281 281 279 278 278
269 270 272 274 276 277 278 277 276 276 276 276 277 278 279 279 279 280 280 281 281 282 282 283 285 286 288 290 291 292 293 294 293 291 287 283 281 282 284 285 284 282 281 281 281 280 281 282 283 283 283 283 283 284 284 282 280 280 280 280 279 279 280
270 272 274 276 277 278 279 279 279 277 276 276 278 279 280 281 281 282 282 283 284 283 283 285 288 289 291 293 294 295 296 296 296 292 288 283 282 282 284 285 284 283 282 280 278 279 281 283 284 285 285 285 285 285 284 282 281 280 280 279 280 281 283
270 273 274 277 279 279 279 281 281 279 276 275 277 278 279 281 281 282 283 285 284 283 284 286 289 290 292 294 295 295 297 298 296 294 289 285 284 284 284 285 285 284 282 280 279 280 282 284 285 287 287 287 287 287 286 284 282 281 280 280 281 282 284
271 274 275 277 279 280 281 281 281 280 277 275 275 276 278 279 280 281 282 283 282 283 285 288 290 291 293 294 295 295 297 297 295 293 290 287 285 285 284 284 284 283 281 281 281 283 285 286 287 288 289 289 289 288 287 287 285 283 282 282 282 283 285
272 275 276 277 278 279 280 281 280 279 279 277 276 276 277 279 280 281 282 282 282 284 287 289 290 292 293 294 294 295 296 295 293 291 289 287 285 285 284 283 282 281 280 281 282 284 285 286 288 288 288 288 288 288 288 287 287 286 286 286 286 286 287
271 273 275 275 276 277 279 280 279 279 279 279 279 279 279 279 280 281 282 282 283 285 288 289 290 291 292 293 293 293 293 292 291 291 289 287 286 285 283 282 280 279 280 281 282 282 283 284 285 286 286 287 287 287 288 288 289 290 289 289 289 290 290
271 272 272 273 274 275 276 277 278 278 278 278 279 279 279 279 279 280 281 281 283 285 287 289 289 290 291 291 291 291 292 291 291 291 290 288 286 285 283 281 280 280 280 281 280 281 282 283 283 284 285 287 287 287 288 289 290 291 291 291 291 291 292
274 274 274 274 274 274 274 275 276 278 278 278 278 278 277 278 279 280 281 282 282 284 286 287 287 288 288 288 289 289 290 290 291 291 290 288 286 285 283 283 282 282 282 281 281 282 284 284 285 286 287 287 288 288 288 289 290 290 290 291 291 291 292